Location: Unspecified
(0.0000°N, 0.0000°E)
Time: 10:03:31
(UTC+00:00)

Vanguard 2 - Pass Details

Date: 27 October 2021
Orbit: 554 x 2936 km, 32.9° (Epoch: 06 December)

Event Time Altitude Azimuth Distance (km) Brightness Sun altitude
Rises 08:58:08 0° 302° (WNW) 2,846 10.1 46.9°
Reaches altitude 10° 09:00:28 10° 300° (WNW) 1,854 9.2 47.5°
Maximum altitude 09:04:26 73° 215° (SW) 580 7.7 48.4°
Drops below altitude 10° 09:08:41 10° 130° (SE) 1,972 10.5 49.4°
Sets 09:11:14 0° 128° (SE) 3,050 11.2 50.0°
